Regional Weather Roundup
Issued by NWS Wakefield, VA

Home | Current Version | Previous Version | Graphics & Text | Print | Product List | Glossary On
Versions: 1 2 3 4 5 6 7 8 9 10 11 12 13 14 15 16 17 18 19 20 21 22 23 24 25 26 27 28 29 30 31 32 33 34 35 36 37 38 39 40 41 42 43 44 45 46 47 48 49 50
000
ASUS41 KAKQ 151510
RWRAKQ

REGIONAL WEATHER ROUNDUP
NATIONAL WEATHER SERVICE WAKEFIELD VA
1100 AM EDT MON SEP 15 2014

Note: "fair" indicates few or no clouds below 12,000 feet with no
significant weather and/or obstructions to visibility. * = Denotes
station may not report precipitation (e.g., rain,snow,etc.),
thunder or fog.

VAZ042-051-052>054-056-151600-
NORTHERN VIRGINIA

CITY           SKY/WX    TMP DP  RH WIND       PRES   REMARKS
WASH NATIONAL  MOSUNNY   69  53  56 VRB3      30.25F
DULLES         MOSUNNY   66  52  60 CALM      30.25F
FORT BELVOIR   SUNNY     67  54  62 SE1       30.25F
QUANTICO       PTSUNNY   67  54  63 CALM      30.26F
FREDERICKSBRG* PTSUNNY   70  55  59 CALM      30.24F
STAFFORD*      PTSUNNY   68  56  65 CALM      30.28F
WARRENTON      SUNNY     69  59  70 CALM      30.25S
CULPEPER*      SUNNY    N/A N/A N/A CALM      30.25F
MANASSAS*      SUNNY     66  55  68 CALM      30.25F
LEESBURG*      SUNNY     64  54  68 CALM      30.26F
WINCHESTER     SUNNY     63  52  67 E3        30.25F
FRONT ROYAL*   SUNNY     61  54  77 CALM      30.25S
LURAY*         SUNNY     59  59 100 CALM      30.25F
$$

VAZ048-049-060>072-079>083-151600-
CENTRAL AND SOUTH CENTRAL VIRGINIA...AND NORTH CENTRAL NORTH CAROLINA

CITY           SKY/WX    TMP DP  RH WIND       PRES   REMARKS
RICHMOND       MOSUNNY   73  53  49 CALM      30.24F
CHESTERFIELD*  SUNNY     72  50  46 S3        30.26S
PETERSBURG*    CLOUDY    68  56  65 CALM      30.25S
HANOVER        SUNNY     70  55  59 CALM      30.25F
TAPPAHANNOCK*  PTSUNNY   71  53  54 E5        30.25S
CHARLOTTSVILLE PTSUNNY   67  54  63 E5        30.25S
ORANGE*        PTSUNNY   68  54  60 N3        30.26F
LOUISA*        SUNNY     70  55  60 NE7       30.24S
FARMVILLE*     CLOUDY    70  55  60 NE3       30.23S
CREWE*         SUNNY     72  56  58 E3        30.24S
FORT PICKETT*  SUNNY     68  56  65 CALM      30.24S
LUNENBURG*     CLOUDY    69  58  68 CALM      30.24S
SOUTH HILL*    CLOUDY    70  61  73 SE5       30.29F
LAWRENCEVILLE* CLOUDY    67  59  73 CALM      30.24S
ROANOKE RAPIDS CLOUDY    68  57  68 CALM      30.24S
RALEIGH        CLOUDY    67  60  78 S3        30.25F
$$

VAZ088>098-151600-
SOUTHEAST VIRGINIA

CITY           SKY/WX    TMP DP  RH WIND       PRES   REMARKS
NORFOLK        CLOUDY    71  57  61 NE5       30.23S
VIRGINIA BEACH PTSUNNY   72  59  63 NE6       30.22S
NORFOLK NAVAL  CLOUDY    72  59  63 E3        30.24S
WEST POINT*    NOT AVBL
NEWPORT NEWS   CLOUDY    76  61  59 VRB5      30.23F
LANGLEY AFB    CLOUDY    71  60  67 E5        30.22F
FORT EUSTIS    CLOUDY    72  52  49 VRB5      30.22S
WILLIAMSBURG*  PTSUNNY   75  61  60 CALM      30.24F
HR EXEC AP*    PTSUNNY   72  61  68 CALM      30.25S
FRANKLIN*        N/A     70  57  64 CALM      30.24S
WAKEFIELD      CLOUDY    71  58  63 CALM      30.24F
$$

VAZ020-022-025-037-045-151600-
WEST CENTRAL AND SOUTHWEST VIRGINIA

CITY           SKY/WX    TMP DP  RH WIND       PRES   REMARKS
STAUNTON*      SUNNY     63  54  73 S3        30.28S
HOT SPRINGS VA NOT AVBL
LYNCHBURG      CLOUDY    66  58  75 VRB3      30.26F
DANVILLE       SUNNY     72  60  66 CALM      30.24F
SOUTH BOSTON*  NOT AVBL
MARTINSVILLE   CLOUDY    73  60  64 CALM      30.26F
ROANOKE        PTSUNNY   66  58  75 CALM      30.26F
BLACKSBURG     CLOUDY    64  63  94 CALM      30.28F
DUBLIN*        CLOUDY    62  62 100 CALM      30.27F FOG
MARION*        CLOUDY    67  62  83 W6        30.29S
HILLSVILLE*    MOSUNNY   63  60  92 CALM      30.28S
RICHLANDS*     CLOUDY    65  63  93 SW3       30.26S FOG
WISE*          PTSUNNY   68  64  88 SW9G16    30.27S
ABINGDON*      CLOUDY    69  64  86 CALM      30.25S
$$

MDZ021>025-VAZ099-100-151600-
SOUTHERN MARYLAND AND THE DELMARVA PENINSULA

CITY           SKY/WX    TMP DP  RH WIND       PRES   REMARKS
PATUXENT RIVER PTSUNNY   68  55  63 E7        30.24F
BAY BRIDGE APT   N/A     66  46  48 CALM      30.25F
LEONARDTOWN    PTSUNNY   68  54  60 CALM      30.25F
DOVER          SUNNY     66  52  59 VRB7      30.23S
GEORGETOWN     SUNNY     70  49  47 E9        30.24F
EASTON         NOT AVBL
CAMBRIDGE      SUNNY     70  52  52 CALM      30.24F
SALISBURY      SUNNY     71  49  45 N6        30.24F
OCEAN CITY     SUNNY     71  52  50 VRB6      30.23F
WALLOPS ISLAND MOSUNNY   70  52  52 E9        30.24F
ACCOMACK*      SUNNY     70  54  56 E5        30.24R
$$

NCZ012>017-030>032-151600-
EASTERN NORTH CAROLINA

CITY           SKY/WX    TMP DP  RH WIND       PRES   REMARKS
ELIZABETH CITY PTSUNNY   72  62  71 N6        30.23S
AHOSKIE*       MOSUNNY   69  58  68 CALM      30.24S
EDENTON*       CLOUDY    70  62  75 N6        30.23S
CURRITUCK*     CLOUDY    71  61  68 N5        30.24S
KILL DEVIL HLS CLOUDY    72  59  64 N6        30.21S
MANTEO         CLOUDY    71  59  66 NE9       30.22S
CAPE HATTERAS  SUNNY     74  63  68 NE9G18    30.20S
TARBORO*       CLOUDY    71  61  71 CALM      30.25S
GOLDSBORO      CLOUDY    67  65  92 E5        30.23S
WASHINGTON     SUNNY     67  61  80 N3        30.24S
GREENVILLE     PTSUNNY   68  61  77 CALM      30.24F
NEW BERN       CLOUDY    71  62  73 N7        30.24S
WILMINGTON     CLOUDY    71  64  78 N8        30.22R
$$

VAZ048-151600-
ELSEWHERE

CITY           SKY/WX    TMP DP  RH WIND       PRES   REMARKS
HARRISBURG PA  SUNNY     64  50  60 SW3       30.25S
BALTIMORE      MOSUNNY   67  50  54 SE5       30.25S
ANNAPOLIS      CLOUDY    66  52  60 VRB5      30.25S
ANDREWS AFB    SUNNY     67  55  64 S3        30.25S
WILMINGTON DE  SUNNY     67  48  50 NE7       30.26R
PHILADELPHIA   MOSUNNY   66  47  50 VRB3      30.25R
WILDWOOD NJ*   SUNNY     64  48  55 NW5       30.24F
ATLANTIC CITY  SUNNY     66  52  60 CALM      30.23F
HENDERSON NC   PTSUNNY   69  58  69 CALM      30.24F
GREENSBORO     PTSUNNY   69  61  75 S3        30.24S
ROCKY MOUNT    CLOUDY    69  60  73 CALM      30.24S
FAYETTEVILLE   CLOUDY    70  63  78 E6        30.23F
CHARLOTTE      CLOUDY    70  62  76 SE5       30.24S
$$

VAZ100-151600-
MARINE

STATION/POSITION TIME  TEMP    WIND        PRES    WAVE   SWELL
                       AIR SEA DIR/SP/G            HT/PER HT/PER
                 (UTC) (F)     (DEG/KT/KT) (MB)    (FT/S) (FT/S)
44066 TX TWR #4  1500   66 74   60/  4/  6 1022.6F   2/ 6   2/ 6
CAPE MAY NJ      1500   65 75  330/  5/  9 1023.4F
LEWES DE         1500   65 71  350/  7/  9 1023.7F
15NM E FENWICK I 1500   66 72              1023.5F   2/ 3
OCEAN-CITY-INLET 1500   65 70   10/  6/  8 1023.5F
WACHAPREAGUE VA  1500   69 71   60/  7/ 11 1023.9R
THOMAS POINT MD  1500   64 74   90/  5/  6 1025.4F
GOOSES REEF MD   1500   66     110/  4/  6 1024.8S
COVE POINT MD    1500   65     100/  4/  5 1024.1F
SOLOMONS ISLAND  1500      76                N/A
BISHOPS HEAD MD  1500   68 70   50/  4/  7 1023.6S
PINEY POINT MD   1500          140/  4/  5   N/A
POTOMAC MD       1500   67      90/  6/  8 1023.4F
CAMBRIDGE MD     1500   65 74   80/  2/  4 1024.0S
LEWISETTA VA     1500   67 73  120/  5/  7 1023.6S
RAPPAHANNOCK LGT 1500           30/  6/  7 1024.4S
STINGRAY PT      1500   69      90/  6/ 10   N/A
YORK RVR RNG VA  1500   70     110/  5/  7 1023.3F
YORKTOWN VA      1500   69 77   70/  4/  5 1023.5F
JAMESTOWN VA     1500   69      70/  2/  6   N/A
DOMINION TERM VA 1500   71     100/  3/  5 1023.7F
KIPTOPEKE VA     1500      78   60/  5/  8   N/A
CHES BAY BRIDGE  1500   69 76   50/  7/  9 1023.2F
CAPE HENRY VA    1500   70      40/  6/  9 1022.5F
CHESAPEAKE LGHT  1400   69      40/  9/ 10 1024.3R
WILLOUBY STN VA  1500   70     100/  5/  7 1022.5S
S CRANEY ISL VA  1500           50/  4/  6 1023.3F
CAPE HENRY BUOY  1400      76                N/A     2/ 6
1ST LANDING BUOY 1500   71      70/  6/  8 1023.4S
CAPE CHARLES BUO 1500      75                N/A     2/ 6   2/ 6
OFFSHORE WE BUOY 1500      74                N/A     3/ 6   2/ 6
64NM E OF VA BCH 1500   71 80   30/ 14/ 17 1022.7S   3/ 6   2/ 6
DUCK PIER NC     1500   70 76   40/ 10/ 12 1022.7F
44100 DUCK FRF   1500      74                N/A     3/ 7
44056 DUCK FRF   1500                        N/A     2/ 6
OREGON INLET NC  1500   72 74   10/ 10/ 15 1023.1R
HATTERAS NC      1500   73 76   20/ 11/ 15 1023.2R
DIAMOND SHLS NC  1500   74     360/ 14/ 17 1022.1R   4/ 8   3/ 8
CAPE LOOKOUT NC  1400   74      30/ 13/ 15 1022.4F
$$



USA.gov is the U.S. government's official web portal to all federal, state and local government web resources and services.